Terug naar catalogus

HULIANWANG DIGUI-11

ActiefCommunicatieLEO
NORAD 62971·PAYLOAD·🇨🇳 China

Gelanceerd Feb 11, 2025 vanaf Wenchang Space Launch Site

Loading…

Volgende Passages (komende 24 uur)

TLE

VersSource: Space-Track

Epoch: Sep 14, 2026, 22:11 UTC

1 62971U 25030A   26257.92452119 -.00000091  00000-0  70147-4 0  9994
2 62971  50.0000 273.9568 0000479  45.2244 314.8667 13.29327138 77797

Volg HULIANWANG DIGUI-11 in realtime met AllMySat

Download on the App Store